Lid_Strength_Index
13 15 16 14 12 12 13 13 13 11 9 9 10 10 9 7 7 7 7 6 6 6 5 4 4 4 5 5 5 4 2 2 2 3 3 3 3 3 3 2 2 2 2 2
15 16 13 12 12 12 13 14 14 12 10 11 11 11 9 8 8 7 7 7 6 6 5 5 5 5 5 5 5 5 3 2 2 2 2 3 4 5 4 3 2 2 2 2
16 14 11 12 13 14 14 14 14 14 11 11 12 13 12 10 9 8 8 7 7 7 6 6 6 6 5 5 3 3 2 2 2 3 4 4 4 5 5 5 4 3 2 2
14 12 13 14 14 13 16 12 12 12 14 16 12 17 13 11 11 10 9 8 8 7 7 7 6 6 5 4 3 3 2 3 3 3 4 4 5 5 6 5 5 4 3 1
14 14 14 14 13 12 14 12 13 12 14 16 15 17 14 13 13 11 10 9 8 7 7 7 6 6 5 3 3 3 2 3 3 4 4 5 5 6 6 5 5 4 3 2
10 9 10 12 11 12 11 13 13 13 15 19 15 16 16 14 12 11 10 9 8 8 7 8 6 6 4 3 3 3 3 4 4 5 5 5 6 6 6 6 4 4 4 3
10 10 9 9 13 11 13 17 20 20 20 20 14 16 15 12 11 10 10 9 8 8 9 7 6 5 5 4 4 4 4 6 6 6 6 6 6 5 5 4 4 4 4 4
15 16 10 7 10 13 15 16 20 22 20 19 14 17 15 11 9 9 8 9 9 9 7 6 6 5 5 5 5 5 5 6 6 6 6 5 4 4 4 4 4 4 4 3
15 14 8 8 8 10 13 16 14 17 17 19 17 15 12 10 10 9 9 9 10 7 7 6 5 5 4 4 6 5 5 5 5 5 5 4 4 3 4 4 3 4 3 3
11 15 9 8 8 9 11 10 17 18 20 22 18 17 16 13 11 11 10 10 9 8 7 6 5 5 4 5 5 5 5 5 5 4 3 3 3 3 3 3 3 3 3 2
11 13 12 10 11 14 12 13 13 15 17 20 21 19 13 12 11 10 10 9 7 7 7 6 5 4 4 5 5 5 5 4 3 3 3 3 3 3 3 3 3 3 3 2
10 13 16 13 9 8 10 11 13 17 18 17 18 18 11 12 11 11 9 7 7 7 6 6 5 5 4 4 5 5 4 3 3 3 3 3 3 3 3 3 3 3 3 2
11 14 17 15 13 10 12 10 11 13 15 18 20 18 10 11 10 8 9 8 7 7 6 6 5 5 5 4 4 4 4 3 3 3 3 3 4 4 3 3 3 3 3 3
8 13 15 18 15 12 14 12 12 13 17 17 16 16 12 11 11 11 8 8 8 7 6 6 6 5 4 4 4 3 4 4 3 3 3 3 4 3 3 3 3 3 2 2
10 15 13 13 12 12 13 13 12 14 13 16 15 15 12 12 11 10 9 7 8 7 7 6 6 5 5 4 4 4 4 4 3 3 3 3 3 3 3 3 2 2 2 1
10 15 13 14 12 12 14 12 12 12 12 13 14 14 11 10 9 8 8 8 8 7 7 6 5 5 5 4 4 4 4 3 3 3 3 2 2 3 3 3 2 2 1 1
12 13 15 17 12 14 16 13 12 12 10 12 15 11 10 9 9 9 8 7 7 7 6 6 5 5 4 4 4 5 4 3 3 3 2 2 2 3 3 2 3 2 3 2
12 13 13 16 15 21 13 10 9 11 10 9 10 10 9 9 8 8 7 8 7 6 6 5 5 4 4 4 4 5 4 3 3 3 3 2 2 2 3 3 3 4 3 2
10 12 15 17 18 15 13 12 12 13 13 10 11 10 9 8 8 9 6 6 6 6 5 4 4 4 4 5 5 4 3 3 3 3 3 2 2 3 3 3 3 4 4 4
9 10 13 16 19 20 14 10 8 9 16 9 9 10 10 9 13 10 6 5 5 5 4 4 4 4 4 5 5 4 3 3 3 3 3 2 2 2 3 3 3 3 3 4
14 14 16 16 17 15 10 10 9 16 15 9 8 9 9 10 9 7 6 5 5 5 5 4 4 4 5 6 5 4 3 4 3 2 2 2 2 2 2 3 3 3 3 3
15 16 16 15 17 19 10 11 13 10 8 8 8 9 8 7 7 6 6 6 5 5 4 4 4 5 6 5 4 4 4 3 3 3 3 3 3 2 2 3 3 3 3 4
15 13 14 14 14 11 11 11 7 7 8 7 8 8 8 7 7 6 6 6 5 5 4 4 4 6 6 5 4 4 3 4 3 3 4 3 3 3 3 3 4 4 4 4
10 8 12 12 10 9 9 7 7 6 7 7 7 7 7 7 7 7 6 5 5 5 5 5 6 6 6 6 5 3 5 4 3 4 3 3 3 3 3 3 3 4 4 4
10 10 11 11 9 8 8 7 6 7 7 7 6 6 6 7 7 7 7 6 5 5 4 5 5 6 6 6 5 4 4 2 3 3 3 3 3 3 4 4 5 3 3 4
10 10 12 13 9 9 9 7 6 7 6 7 7 7 6 7 7 7 6 6 6 5 6 4 5 5 5 5 5 4 3 2 3 3 3 3 3 3 4 5 7 13 10 9